FLOCK 4V-25 (46812 NORAD) Tracking and Keplerian Element Data

This shows tracking and keplerian element data for the satellite.

Feedback or suggestion? Click here.




ElementValue
Catalog46812
NameFLOCK 4V-25
Epoch Orbit559
Epoch Day336.94349465
Epoch Year2020
RAAN48.4344
Inclination97.4555
Eccentricity0.0004273
Argument of Perigee260.0927
Mean Anonmoly99.9862
Mean Motion15.15816271
Decay Rate1.94E-05
L11 46812U 20061BP 20336.94349465 .00001940 00000-0 10501-3 0 9992
L22 46812 97.4555 48.4344 0004273 260.0927 99.9862 15.15816271 5596

Live tracking and technical data element details for FLOCK 4V-25 (NORAD 46812). FLOCK 4V-25 can be tracked NOW for your location showing map with azimuth and elevation plus other details from your city location.

Track the satellite on the map from your city or location and see movement details for azimuth, elevation, latitude, longitude, range, height, and movement on the map or in text.







IsCatalogInMostPopularTable: catalog: 46812, numindb: 19
Update: records affected: 1



GetName: 46812 FLOCK 4V-25

Hit Count: updated at: Thu, 03 Dec 2020 06:41:19 GMT